This demonstration page uses our WeatherBlox Daily Observations layout. Learn more.

Left ArrowRight Arrow

31.84235, -102.49876

Hourly Observations for February 26, 2022

Temp ( °F °C ) Dew Point ( °F °C ) Humidity (%) Winds ( mph kmh ) Pressure ( in mb ) Visibility ( mi km ) Precip ( " mm )
12:53 am 00:53 Clear 30 -1.1 17 -8.3 58 58 ENE 8 13 30.28 1025 10 16 0.00 0.00
1:53 am 01:53 Clear 28 -2.2 16 -8.9 60 60 NE 9 15 30.27 1025 10 16 0.00 0.00
2:53 am 02:53 Clear 29 -1.7 16 -8.9 58 58 ENE 10 17 30.26 1025 10 16 0.00 0.00
3:53 am 03:53 Clear 29 -1.7 17 -8.3 61 61 E 10 17 30.24 1024 10 16 0.00 0.00
4:53 am 04:53 Partly Cloudy 29 -1.7 16 -8.9 58 58 ENE 10 17 30.24 1024 10 16 0.00 0.00
5:01 am 05:01 Mostly Cloudy 29 -1.7 17 -8.3 61 61 E 12 19 30.38 1029 10 16 0.00 0.00
5:53 am 05:53 Cloudy 29 -1.7 17 -8.3 61 61 ENE 12 19 30.24 1024 10 16 0.00 0.00
6:53 am 06:53 Cloudy 29 -1.7 17 -8.3 61 61 ENE 13 20 30.28 1026 10 16 0.00 0.00
7:53 am 07:53 Cloudy 29 -1.7 17 -8.3 61 61 E 13 20 30.30 1026 10 16 0.00 0.00
8:53 am 08:53 Cloudy 30 -1.1 18 -7.8 61 61 ENE 10 17 30.33 1027 10 16 0.00 0.00
9:53 am 09:53 Cloudy 31 -0.6 20 -6.7 64 64 E 12 19 30.35 1028 10 16 0.00 0.00
10:53 am 10:53 Cloudy 33 0.6 21 -6.1 61 61 ENE 12 19 30.35 1028 10 16 0.00 0.00
11:51 am 11:51 Partly Cloudy 36 2 21 -6 56 56 E 6 9 30.41 1030 10 16 0.00 0.00
11:53 am 11:53 Mostly Sunny 36 2.2 22 -5.6 57 57 ENE 7 11 30.34 1027 10 16 0.00 0.00
12:53 pm 12:53 Sunny 40 4.4 24 -4.4 53 53 ENE 3 6 30.30 1026 10 16 0.00 0.00
1:53 pm 13:53 Sunny 43 6.1 24 -4.4 47 47 VRB 5 7 30.27 1025 10 16 0.00 0.00
2:53 pm 14:53 Sunny 47 8.3 26 -3.3 44 44 N 8 13 30.24 1024 10 16 0.00 0.00
3:53 pm 15:53 Sunny 48 8.9 26 -3.3 42 42 E 8 13 30.22 1023 10 16 0.00 0.00
4:53 pm 16:53 Sunny 48 8.9 26 -3.3 42 42 VRB 5 7 30.22 1023 10 16 0.00 0.00
5:53 pm 17:53 Sunny 46 7.8 26 -3.3 46 46 ENE 10 17 30.24 1024 10 16 0.00 0.00
6:53 pm 18:53 Clear 42 5.6 27 -2.8 55 55 E 10 17 30.28 1025 10 16 0.00 0.00
7:53 pm 19:53 Clear 39 3.9 26 -3.3 60 60 E 10 17 30.29 1026 10 16 0.00 0.00
8:53 pm 20:53 Clear 36 2.2 26 -3.3 67 67 ESE 8 13 30.33 1027 10 16 0.00 0.00
9:53 pm 21:53 Clear 33 0.6 24 -4.4 70 70 E 7 11 30.37 1028 10 16 0.00 0.00
10:53 pm 22:53 Clear 32 0 24 -4.4 73 73 NE 6 9 30.38 1029 10 16 0.00 0.00
11:53 pm 23:53 Clear 31 -0.6 23 -5 72 72 NE 9 15 30.39 1029 10 16 0.00 0.00

Powered by Vaisala Xweather